{"data":{"norad_id":55833,"intl_designator":"2023-029AP","name":"ONEWEB-0674","alt_names":[],"object_type":"PAYLOAD","status":"ACTIVE","operator":null,"country":"UK","launch_date":"2023-03-09","launch_site_code":"AFETR","launch_vehicle":null,"mission":null,"orbit_class":"UNKNOWN","rcs_meters":null,"size_class":null,"mass_kg":null,"dimensions":null,"purposes":["comms"],"wikipedia_slug":null,"has_3d_model":false,"image_url":null,"decayed_at":null,"tle_current":{"epoch":"2026-09-20T00:32:09.394080Z","epoch_age_seconds":59423,"freshness":"FRESH","line1":"1 55833U 23029AP  26263.02233095  .00000221  00000+0  56033-3 0  9997","line2":"2 55833  87.8897 270.7974 0002345  89.9726 270.1673 13.14501440171877","mean_motion":13.1450144,"eccentricity":0.0002345,"inclination_deg":87.8897,"raan_deg":270.7974,"arg_perigee_deg":89.9726,"mean_anomaly_deg":270.1673,"bstar":0.00056033,"rev_number":17187,"period_min":109.54723640318,"perigee_km":1204.0171534038,"apogee_km":1207.5740177865,"semimajor_km":7583.9325855952,"source":"CELESTRAK","updated_at":"2026-09-20T09:00:44.785425Z"}}}